[[{"header":{"parameterUnit":"m.s-1","parameterCategory":2,"la1":30.2991,"la2":30.254,"lo1":-89.0895,"lo2":-89.0444,"dy":0.0017,"dx":0.0017,"nx":28,"ny":28,"refTime":"2023-07-29T21:00:00:Z","depth":"0","parameterNumber":2,"parameterNumberName":"U-component_of_CURRENTS"},"data":[0,0,0,0,0,0,0,0,0,0,0,0,0,0,0,0,0,0,0,0,0,0,0,0,0,0,0,0,0,0,0,0,0,0,0,0,0,0,0,0,0,0,0,0,0,0,0,0,0,0,0,0,0,0,0,0,0,0,-0.2484,-0.2484,0,-0.2504,-0.2504,-0.2504,-0.2406,-0.2403,-0.24,-0.2398,-0.2295,-0.2294,-0.2294,0,0,0,0,0,0,0,0,0,0,0,0,0,-0.2438,-0.2438,-0.2484,-0.2484,-0.2485,-0.2504,-0.2504,-0.2504,-0.2406,-0.2403,-0.2399,-0.2396,-0.2295,-0.2294,-0.2294,0,0,0,0,0,0,0,0,0,0,0,0,0,-0.2456,-0.2439,-0.2484,-0.2439,-0.2435,-0.2504,-0.2504,-0.2504,-0.2407,-0.2403,-0.2399,-0.2395,-0.2295,-0.2294,-0.2294,-0.2374,0,0,-0.2293,-0.2293,0,0,0,0,0,0,0,0,-0.2455,-0.2458,-0.2445,-0.2442,-0.2438,-0.2449,-0.245,-0.2455,-0.2408,-0.2416,-0.2397,-0.2393,-0.2339,-0.2335,-0.2347,-0.2369,-0.2365,-0.2293,-0.2293,-0.2293,-0.2293,0,0,0,0,0,0,0,-0.2454,-0.2457,-0.249,-0.2446,-0.2442,-0.2444,-0.2441,-0.2451,-0.2397,-0.2415,-0.2408,-0.2414,-0.2335,-0.2348,-0.2344,-0.2363,-0.2293,-0.2293,-0.2293,-0.2293,-0.238,-0.2382,0,0,0,0,0,0,-0.2455,-0.2456,-0.249,-0.2491,-0.2438,-0.2448,-0.2445,-0.2449,-0.2399,-0.2389,-0.2418,-0.2409,-0.2351,-0.2344,-0.234,-0.2379,-0.2293,-0.2293,-0.2292,-0.2378,-0.2381,-0.2383,0,0,0,0,0,0,-0.2454,-0.2458,-0.2489,-0.2475,-0.2479,-0.2453,-0.2458,-0.2451,-0.2444,-0.2403,-0.2389,-0.2414,-0.2347,-0.234,-0.2336,-0.2376,-0.2292,-0.2292,-0.2375,-0.2378,-0.2382,-0.2492,0,0,0,0,0,0,-0.2453,-0.2458,-0.2461,-0.2475,-0.248,-0.2511,-0.2462,-0.2455,-0.2455,-0.2444,-0.2397,-0.2384,-0.2343,-0.2337,-0.2335,-0.2374,-0.2292,-0.2371,-0.2376,-0.2381,-0.2485,-0.2499,-0.251,0,0,0,0,0,-0.2451,-0.2459,-0.2461,-0.2466,-0.2485,-0.2512,-0.2515,-0.2482,-0.2459,-0.246,-0.2432,-0.2384,-0.2365,-0.2339,-0.2337,-0.2376,-0.2369,-0.2375,-0.238,-0.2479,-0.2496,-0.251,0,0,0,0,0,0,-0.2425,-0.2452,-0.2453,-0.2464,-0.2484,-0.2495,-0.2495,-0.2493,-0.248,-0.2461,-0.2418,-0.2405,-0.2419,-0.2392,-0.2364,-0.2417,-0.2361,-0.2366,-0.2436,-0.2452,-0.2464,-0.2464,-0.2292,0,0,0,0,0,-0.2433,-0.2445,-0.2475,-0.2481,-0.2495,-0.2506,-0.2514,-0.2502,-0.2497,-0.2485,-0.2461,-0.2443,-0.2453,-0.2441,-0.2437,-0.2471,-0.2439,-0.2496,-0.2509,-0.252,-0.252,-0.2513,-0.2525,-0.2402,-0.2402,-0.2402,0,0,-0.242,-0.244,-0.2443,-0.2478,-0.2489,-0.2524,-0.2497,-0.2511,-0.2539,-0.2481,-0.2496,-0.2488,-0.2473,-0.2503,-0.2507,-0.2475,-0.2544,-0.2527,-0.2536,-0.253,-0.252,-0.2532,-0.2542,-0.2406,-0.2405,-0.2404,0,0,-0.241,-0.2428,-0.2439,-0.2474,-0.2506,-0.2526,-0.2534,-0.2557,-0.2559,-0.2588,-0.2565,-0.2587,-0.2577,-0.2594,-0.2598,-0.2689,-0.2615,-0.2679,-0.2738,-0.2732,-0.2742,-0.2749,-0.2741,-0.2747,-0.2681,-0.2681,-0.2681,0,-0.2397,-0.242,-0.2446,-0.2482,-0.2509,-0.2531,-0.2561,-0.2595,-0.2611,-0.263,-0.2589,-0.2633,-0.263,-0.2693,-0.2724,-0.272,-0.2685,-0.2678,-0.2747,-0.2754,-0.276,-0.2749,-0.2755,-0.2687,-0.2686,-0.2686,-0.2685,0,-0.2407,-0.2434,-0.2447,-0.2505,-0.2541,-0.2569,-0.2627,-0.2664,-0.2673,-0.2697,-0.2744,-0.2751,-0.2766,-0.2792,-0.2783,-0.2847,-0.28,-0.2766,-0.2703,-0.2779,-0.2763,-0.2767,-0.2695,-0.2693,-0.2691,-0.269,0,0,-0.2357,-0.2436,-0.2441,-0.247,-0.2556,-0.258,-0.2662,-0.273,-0.2763,-0.2799,-0.2831,-0.2904,-0.2895,-0.2903,-0.2909,-0.2922,-0.2964,-0.2861,-0.2858,-0.2845,-0.2932,-0.2718,-0.2701,-0.2919,-0.292,-0.2921,-0.291,0,-0.2355,-0.2404,-0.2458,-0.2515,-0.2546,-0.2625,-0.2691,-0.2763,-0.2802,-0.2843,-0.2896,-0.2914,-0.2941,-0.2933,-0.297,-0.2949,-0.2974,-0.297,-0.2868,-0.2865,-0.2658,-0.2698,-0.252,-0.2477,-0.2912,-0.2913,-0.2913,0,-0.2352,-0.2385,-0.2428,-0.2514,-0.2535,-0.2579,-0.2676,-0.2739,-0.2838,-0.2861,-0.292,-0.293,-0.3002,-0.2977,-0.3018,-0.2997,-0.2985,-0.2971,-0.2969,-0.2726,-0.2655,-0.2469,-0.2465,-0.2443,-0.2917,-0.2917,-0.2917,0,-0.229,-0.2369,-0.2391,-0.2426,-0.253,-0.2567,-0.2624,-0.273,-0.2769,-0.2856,-0.2859,-0.2947,-0.2947,-0.297,-0.2981,-0.2979,-0.2978,-0.2967,-0.278,-0.2766,-0.2572,-0.2536,-0.252,-0.2993,-0.2993,-0.2993,-0.2993,0,-0.2276,-0.2301,-0.2355,-0.2376,-0.2402,-0.2501,-0.2539,-0.2625,-0.2705,-0.2732,-0.2841,-0.2852,-0.2933,-0.2948,-0.2969,-0.2869,-0.2974,-0.2786,-0.2741,-0.2605,-0.2574,-0.2506,-0.2571,-0.2992,-0.2992,-0.2992,-0.2992,0,-0.2228,-0.2265,-0.2291,-0.2361,-0.2373,-0.2393,-0.2465,-0.2492,-0.2589,-0.262,-0.2636,-0.2759,-0.2767,-0.2835,-0.2856,-0.2802,-0.2693,-0.2712,-0.2542,-0.2473,-0.2197,-0.2275,-0.222,-0.2161,-0.2469,-0.2464,-0.2459,0,-0.2216,-0.2214,-0.2243,-0.2236,-0.2263,-0.2292,-0.2306,-0.2411,-0.2437,-0.255,-0.2547,-0.2591,-0.2593,-0.2553,-0.248,-0.2433,-0.2521,-0.222,-0.2181,-0.2141,-0.22,-0.2279,-0.2243,-0.2003,-0.1995,-0.1989,-0.1984,0,-0.218,-0.2175,-0.2187,-0.215,-0.2143,-0.215,-0.2179,-0.2179,-0.2296,-0.2318,-0.236,-0.2368,-0.2318,-0.216,-0.2069,-0.204,-0.2122,-0.2073,-0.2095,-0.1869,-0.1898,-0.183,-0.2075,-0.1925,-0.1931,-0.1935,-0.1938,-0.1941,-0.2134,-0.2109,-0.2084,-0.2053,-0.2044,-0.2012,-0.1961,-0.1997,-0.1997,-0.199,-0.2118,-0.2041,-0.19,-0.1717,-0.1682,-0.1486,-0.1676,-0.1431,-0.1546,-0.1642,-0.1522,-0.1609,-0.1352,-0.1354,-0.1356,-0.1358,-0.136,0,-0.2045,-0.2012,-0.1984,-0.1921,-0.1862,-0.1893,-0.1868,-0.1791,-0.1722,-0.1712,-0.1704,-0.1523,-0.134,-0.1262,-0.1059,-0.0995,-0.104,-0.1028,-0.1159,-0.1159,-0.1263,-0.117,-0.0783,-0.0783,-0.0783,-0.0783,-0.0783,-0.0783,-0.1982,-0.1909,-0.1884,-0.1747,-0.1702,-0.1564,-0.1515,-0.1428,-0.1373,-0.1198,-0.1066,-0.1008,-0.0926,-0.1008,-0.0892,-0.084,-0.0926,-0.0868,-0.0995,-0.1126,-0.1175,-0.1223,-0.1147,-0.0762,-0.0762,-0.0789,-0.079,-0.0791]},{"header":{"parameterUnit":"m.s-1","parameterCategory":2,"la1":30.2991,"la2":30.254,"lo1":-89.0895,"lo2":-89.0444,"dy":0.0017,"dx":0.0017,"nx":28,"ny":28,"refTime":"2023-07-29T21:00:00:Z","depth":"0","parameterNumber":3,"parameterNumberName":"V-component_of_CURRENTS"},"data":[0,0,0,0,0,0,0,0,0,0,0,0,0,0,0,0,0,0,0,0,0,0,0,0,0,0,0,0,0,0,0,0,0,0,0,0,0,0,0,0,0,0,0,0,0,0,0,0,0,0,0,0,0,0,0,0,0,0,-0.1157,-0.1157,0,-0.1187,-0.1188,-0.1188,-0.117,-0.1169,-0.1168,-0.1167,-0.1056,-0.1054,-0.1052,0,0,0,0,0,0,0,0,0,0,0,0,0,-0.1081,-0.1083,-0.1157,-0.1157,-0.1158,-0.1187,-0.1188,-0.1188,-0.117,-0.1169,-0.1168,-0.1167,-0.1056,-0.1054,-0.1051,0,0,0,0,0,0,0,0,0,0,0,0,0,-0.1115,-0.1083,-0.1157,-0.1151,-0.1151,-0.1187,-0.1188,-0.1188,-0.1171,-0.1169,-0.1168,-0.1166,-0.1057,-0.1054,-0.1051,-0.1062,0,0,-0.1042,-0.104,0,0,0,0,0,0,0,0,-0.1113,-0.1118,-0.1152,-0.1152,-0.1151,-0.1172,-0.112,-0.1139,-0.1171,-0.1165,-0.1167,-0.1166,-0.1081,-0.1076,-0.109,-0.1057,-0.1052,-0.1041,-0.104,-0.1038,-0.1037,0,0,0,0,0,0,0,-0.111,-0.1116,-0.1171,-0.1152,-0.1152,-0.1146,-0.1149,-0.1124,-0.113,-0.1165,-0.1164,-0.1165,-0.108,-0.1093,-0.1086,-0.1051,-0.1041,-0.1039,-0.1037,-0.1036,-0.1032,-0.1034,0,0,0,0,0,0,-0.1106,-0.1114,-0.117,-0.1171,-0.1126,-0.1148,-0.1152,-0.1168,-0.1133,-0.1127,-0.1166,-0.1164,-0.1099,-0.109,-0.1082,-0.1098,-0.1038,-0.1035,-0.1034,-0.1031,-0.1033,-0.1035,0,0,0,0,0,0,-0.1104,-0.1111,-0.1168,-0.1141,-0.1148,-0.1151,-0.1169,-0.117,-0.1178,-0.1135,-0.1126,-0.1173,-0.1097,-0.1086,-0.1073,-0.1092,-0.1034,-0.1031,-0.1029,-0.1031,-0.1034,-0.1125,0,0,0,0,0,0,-0.1103,-0.1111,-0.1125,-0.1142,-0.1149,-0.1205,-0.1171,-0.1171,-0.118,-0.1177,-0.1138,-0.1127,-0.1095,-0.1078,-0.107,-0.1087,-0.1029,-0.1026,-0.103,-0.1033,-0.112,-0.113,-0.114,0,0,0,0,0,-0.11,-0.1132,-0.1126,-0.1132,-0.1167,-0.1206,-0.1211,-0.1208,-0.1182,-0.1205,-0.1174,-0.1128,-0.1093,-0.1077,-0.1067,-0.1084,-0.1025,-0.1029,-0.1033,-0.1115,-0.1128,-0.1139,0,0,0,0,0,0,-0.111,-0.1133,-0.1127,-0.1164,-0.1187,-0.1203,-0.122,-0.1213,-0.121,-0.1199,-0.1147,-0.1136,-0.1134,-0.1101,-0.1085,-0.1096,-0.1052,-0.1054,-0.1119,-0.113,-0.114,-0.1148,-0.1026,0,0,0,0,0,-0.1117,-0.1146,-0.1165,-0.1196,-0.1205,-0.121,-0.1223,-0.1227,-0.1224,-0.1223,-0.1191,-0.1161,-0.1147,-0.1131,-0.1115,-0.1116,-0.1094,-0.1122,-0.1132,-0.1141,-0.1143,-0.1146,-0.1156,-0.1048,-0.1048,-0.1048,0,0,-0.1126,-0.1145,-0.1158,-0.1199,-0.121,-0.1251,-0.1216,-0.1247,-0.1278,-0.1208,-0.1227,-0.1193,-0.1157,-0.1166,-0.1161,-0.1136,-0.1164,-0.1146,-0.1153,-0.1151,-0.1151,-0.1161,-0.1171,-0.105,-0.105,-0.1049,0,0,-0.1168,-0.1177,-0.1215,-0.1244,-0.1274,-0.1283,-0.1292,-0.1311,-0.1313,-0.1333,-0.129,-0.127,-0.1248,-0.1229,-0.1214,-0.1268,-0.1219,-0.1262,-0.1311,-0.1314,-0.1323,-0.133,-0.1327,-0.1333,-0.1263,-0.1263,-0.1263,0,-0.1173,-0.123,-0.1233,-0.1284,-0.1309,-0.1299,-0.1348,-0.1365,-0.1376,-0.1375,-0.135,-0.1321,-0.1282,-0.1287,-0.1305,-0.1288,-0.1281,-0.1267,-0.1327,-0.1333,-0.1339,-0.1334,-0.134,-0.1268,-0.1267,-0.1267,-0.1266,0,-0.1248,-0.1295,-0.1322,-0.1378,-0.1408,-0.1452,-0.1471,-0.1491,-0.1477,-0.1477,-0.1476,-0.1434,-0.1409,-0.14,-0.1365,-0.1388,-0.1368,-0.1342,-0.1295,-0.1356,-0.1346,-0.1351,-0.1275,-0.1273,-0.1272,-0.1271,0,0,-0.1247,-0.1352,-0.1361,-0.1401,-0.146,-0.1491,-0.1543,-0.1576,-0.1593,-0.1591,-0.1606,-0.1577,-0.1533,-0.1514,-0.1467,-0.1463,-0.1494,-0.1423,-0.1421,-0.1418,-0.1504,-0.1287,-0.127,-0.1482,-0.1483,-0.1484,-0.1484,0,-0.1297,-0.141,-0.1445,-0.1536,-0.1588,-0.1604,-0.1648,-0.1675,-0.1675,-0.169,-0.1647,-0.164,-0.1585,-0.1564,-0.1558,-0.1515,-0.1508,-0.1496,-0.1447,-0.1445,-0.1242,-0.1268,-0.1116,-0.1084,-0.1488,-0.1488,-0.1489,0,-0.1348,-0.142,-0.1524,-0.161,-0.1629,-0.1677,-0.1724,-0.1765,-0.1782,-0.1776,-0.1765,-0.173,-0.1722,-0.1661,-0.1632,-0.1631,-0.1573,-0.1535,-0.1534,-0.1297,-0.1234,-0.1087,-0.1076,-0.0829,-0.1494,-0.1494,-0.1494,0,-0.1341,-0.1463,-0.1545,-0.1583,-0.1682,-0.1714,-0.1749,-0.1782,-0.1801,-0.1826,-0.1827,-0.182,-0.1797,-0.1764,-0.1658,-0.1665,-0.1609,-0.161,-0.1363,-0.1348,-0.1187,-0.1153,-0.0921,-0.158,-0.158,-0.158,-0.158,0,-0.1378,-0.1435,-0.1549,-0.1599,-0.1671,-0.1726,-0.1778,-0.181,-0.1841,-0.1858,-0.1859,-0.1857,-0.1819,-0.1768,-0.1699,-0.152,-0.1639,-0.1365,-0.1326,-0.1212,-0.1182,-0.0931,-0.0878,-0.158,-0.158,-0.158,-0.158,0,-0.1351,-0.1436,-0.1528,-0.1642,-0.1676,-0.1719,-0.1792,-0.1823,-0.1854,-0.188,-0.1888,-0.1891,-0.182,-0.1737,-0.1661,-0.1526,-0.124,-0.1307,-0.1157,-0.1096,-0.0609,-0.057,-0.037,-0.0245,-0.1067,-0.1062,-0.1057,0,-0.1345,-0.1397,-0.1539,-0.1585,-0.1637,-0.1708,-0.1754,-0.1818,-0.1846,-0.1886,-0.1895,-0.184,-0.1784,-0.1574,-0.1332,-0.1141,-0.1021,-0.0847,-0.0804,-0.0531,-0.0465,-0.0473,-0.0386,-0.0662,-0.0654,-0.0648,-0.0643,0,-0.1311,-0.1364,-0.144,-0.1547,-0.1616,-0.1696,-0.1763,-0.179,-0.1853,-0.1883,-0.1895,-0.1862,-0.1603,-0.1309,-0.0974,-0.0829,-0.062,-0.0706,-0.0487,-0.0154,-0.0095,0.003,-0.072,-0.0588,-0.0594,-0.0598,-0.0601,-0.0603,-0.1249,-0.129,-0.1391,-0.1476,-0.1567,-0.165,-0.1677,-0.1758,-0.1806,-0.1834,-0.1855,-0.1788,-0.1283,-0.0792,-0.059,0.0019,-0.0177,0.0169,0.0176,0.0129,0.0335,-0.0253,-0.0017,-0.0019,-0.0021,-0.0022,-0.0024,0,-0.1155,-0.1218,-0.1304,-0.141,-0.1476,-0.1558,-0.165,-0.166,-0.1698,-0.1761,-0.1765,-0.1337,-0.0779,-0.0276,0.0549,0.0857,0.0851,0.0986,0.0979,0.1009,0.0455,0.057,0.1024,0.1024,0.1024,0.1023,0.1023,0.1023,-0.1101,-0.1151,-0.1213,-0.1285,-0.1356,-0.1409,-0.1447,-0.1495,-0.1526,-0.1451,-0.1323,-0.1221,-0.0402,0.0735,0.1518,0.1582,0.1732,0.1721,0.175,0.1372,0.1295,0.1221,0.1349,0.1959,0.196,0.2327,0.2331,0.2334]}],[{"header":{"parameterUnit":"m.s-1","parameterCategory":2,"la1":30.2991,"la2":30.254,"lo1":-89.0895,"lo2":-89.0444,"dy":0.0017,"dx":0.0017,"nx":28,"ny":28,"refTime":"2023-07-29T21:00:00:Z","depth":"2","parameterNumber":2,"parameterNumberName":"U-component_of_CURRENTS"},"data":[0,0,0,0,0,0,0,0,0,0,0,0,0,0,0,0,0,0,0,0,0,0,0,0,0,0,0,0,0,0,0,0,0,0,0,0,0,0,0,0,0,0,0,0,0,0,0,0,0,0,0,0,0,0,0,0,0,0,-0.2707,-0.2707,0,-0.2902,-0.2907,-0.2911,-0.311,-0.311,-0.3111,-0.3111,-0.3308,-0.3313,-0.3317,0,0,0,0,0,0,0,0,0,0,0,0,0,-0.248,-0.2485,-0.2707,-0.2707,-0.2707,-0.2902,-0.2907,-0.2912,-0.311,-0.311,-0.3111,-0.3111,-0.3306,-0.3312,-0.3318,0,0,0,0,0,0,0,0,0,0,0,0,0,-0.264,-0.2487,-0.2707,-0.2811,-0.2821,-0.2901,-0.2907,-0.2913,-0.311,-0.311,-0.3111,-0.3112,-0.3304,-0.3311,-0.3319,-0.335,0,0,-0.3341,-0.3344,0,0,0,0,0,0,0,0,-0.2631,-0.2652,-0.2796,-0.2804,-0.2814,-0.2961,-0.2898,-0.3051,-0.3109,-0.3026,-0.3111,-0.3112,-0.3175,-0.3193,-0.3264,-0.3359,-0.3368,-0.3341,-0.3346,-0.3349,-0.3351,0,0,0,0,0,0,0,-0.262,-0.2644,-0.2809,-0.2795,-0.2807,-0.2838,-0.2865,-0.293,-0.3113,-0.3033,-0.3042,-0.3025,-0.3184,-0.3256,-0.3269,-0.3371,-0.3341,-0.3348,-0.3352,-0.3355,-0.347,-0.3468,0,0,0,0,0,0,-0.2548,-0.2634,-0.2802,-0.2813,-0.2695,-0.284,-0.2871,-0.2933,-0.3113,-0.3134,-0.3024,-0.3032,-0.3244,-0.3261,-0.3276,-0.3344,-0.3349,-0.3356,-0.336,-0.3471,-0.3469,-0.3468,0,0,0,0,0,0,-0.2544,-0.2565,-0.2794,-0.2703,-0.2731,-0.2841,-0.2911,-0.2936,-0.3056,-0.3101,-0.3128,-0.3117,-0.3245,-0.3266,-0.3326,-0.3352,-0.3359,-0.3365,-0.3472,-0.347,-0.3469,-0.3465,0,0,0,0,0,0,-0.2539,-0.2565,-0.2589,-0.2701,-0.2733,-0.2862,-0.2908,-0.2939,-0.3028,-0.3045,-0.3189,-0.3206,-0.3247,-0.3315,-0.3333,-0.3362,-0.3371,-0.3474,-0.3472,-0.3469,-0.3467,-0.3463,-0.346,0,0,0,0,0,-0.2531,-0.2579,-0.2592,-0.2609,-0.2766,-0.2861,-0.2886,-0.2978,-0.3032,-0.3093,-0.3151,-0.3204,-0.3312,-0.332,-0.3342,-0.3373,-0.3475,-0.3472,-0.3469,-0.3468,-0.3464,-0.346,0,0,0,0,0,0,-0.2509,-0.2603,-0.2622,-0.2699,-0.2766,-0.2886,-0.294,-0.3003,-0.3113,-0.3131,-0.3204,-0.3224,-0.3285,-0.3314,-0.3321,-0.3388,-0.3397,-0.3398,-0.3388,-0.3385,-0.3382,-0.3307,-0.3377,0,0,0,0,0,-0.2499,-0.2575,-0.264,-0.271,-0.2742,-0.285,-0.2901,-0.2963,-0.3051,-0.311,-0.3201,-0.3258,-0.3285,-0.3323,-0.3368,-0.3419,-0.3397,-0.3442,-0.3439,-0.3436,-0.3383,-0.3337,-0.3325,-0.3458,-0.3458,-0.3458,0,0,-0.2503,-0.2565,-0.2604,-0.2707,-0.2785,-0.2834,-0.2897,-0.299,-0.3024,-0.3103,-0.3218,-0.3269,-0.3293,-0.334,-0.3369,-0.3375,-0.3399,-0.3432,-0.3431,-0.3378,-0.3333,-0.332,-0.3308,-0.3456,-0.3457,-0.3457,0,0,-0.2533,-0.2617,-0.2666,-0.2722,-0.2796,-0.2856,-0.2883,-0.3016,-0.3075,-0.3149,-0.3194,-0.3219,-0.3343,-0.3326,-0.3331,-0.3324,-0.3383,-0.3389,-0.3325,-0.3283,-0.3272,-0.3261,-0.3273,-0.3263,-0.3388,-0.3388,-0.3388,0,-0.2521,-0.2603,-0.2692,-0.2739,-0.2767,-0.2865,-0.2901,-0.2969,-0.3101,-0.3105,-0.3173,-0.3254,-0.3299,-0.3266,-0.327,-0.3315,-0.3337,-0.3352,-0.3279,-0.3267,-0.3256,-0.327,-0.3259,-0.3387,-0.3387,-0.3387,-0.3387,0,-0.2556,-0.2624,-0.2671,-0.2757,-0.2806,-0.287,-0.2922,-0.2987,-0.3063,-0.3097,-0.3124,-0.3173,-0.32,-0.3236,-0.3262,-0.3214,-0.3275,-0.3286,-0.3292,-0.3242,-0.3262,-0.3251,-0.3386,-0.3387,-0.3387,-0.3387,0,0,-0.2512,-0.2662,-0.2669,-0.271,-0.2817,-0.2865,-0.2897,-0.2925,-0.2933,-0.3023,-0.3033,-0.3046,-0.3085,-0.3084,-0.3135,-0.31,-0.3075,-0.3178,-0.3177,-0.3194,-0.3049,-0.2869,-0.2841,-0.3112,-0.3108,-0.3105,-0.3115,0,-0.2503,-0.2598,-0.2653,-0.2724,-0.2784,-0.2841,-0.2862,-0.2888,-0.2935,-0.298,-0.2962,-0.3011,-0.3025,-0.3078,-0.3028,-0.3091,-0.3037,-0.3073,-0.3086,-0.3085,-0.2933,-0.2815,-0.2621,-0.2591,-0.3104,-0.3102,-0.3101,0,-0.2483,-0.256,-0.2638,-0.2724,-0.2744,-0.2787,-0.2819,-0.2848,-0.2866,-0.2901,-0.2896,-0.2941,-0.2917,-0.2955,-0.2914,-0.2968,-0.2974,-0.2992,-0.2994,-0.2795,-0.2878,-0.2709,-0.2551,-0.3082,-0.3084,-0.3085,-0.3086,0,-0.2408,-0.2527,-0.2597,-0.2635,-0.2746,-0.2762,-0.2809,-0.2831,-0.2847,-0.2882,-0.2916,-0.2878,-0.2909,-0.2885,-0.2884,-0.2945,-0.2842,-0.2931,-0.2744,-0.2738,-0.254,-0.2517,-0.2817,-0.2817,-0.2817,-0.2817,-0.2817,0,-0.2374,-0.2421,-0.259,-0.2617,-0.2663,-0.2758,-0.2783,-0.2795,-0.2858,-0.2847,-0.2897,-0.2871,-0.2893,-0.2846,-0.286,-0.2729,-0.2799,-0.2666,-0.2679,-0.2539,-0.2516,-0.2908,-0.2919,-0.2818,-0.2818,-0.2818,-0.2817,0,-0.229,-0.2412,-0.2485,-0.2606,-0.2642,-0.2689,-0.2793,-0.2793,-0.2875,-0.288,-0.2905,-0.2886,-0.2816,-0.2787,-0.2743,-0.2664,-0.2596,-0.2518,-0.2363,-0.235,-0.256,-0.2571,-0.2363,-0.2355,-0.2349,-0.2344,-0.2339,0,-0.2257,-0.2305,-0.2437,-0.2488,-0.2557,-0.2656,-0.2683,-0.2785,-0.2793,-0.2843,-0.2814,-0.2777,-0.2662,-0.252,-0.2375,-0.2285,-0.2411,-0.2034,-0.2033,-0.2453,-0.2491,-0.2511,-0.253,-0.184,-0.1832,-0.1825,-0.182,0,-0.2178,-0.2243,-0.2295,-0.2399,-0.2473,-0.2512,-0.2581,-0.2586,-0.267,-0.267,-0.2604,-0.2545,-0.2387,-0.2126,-0.1959,-0.1895,-0.2041,-0.1891,-0.2328,-0.195,-0.1949,-0.1991,-0.2028,-0.1761,-0.1767,-0.1771,-0.1774,-0.1777,-0.2093,-0.2122,-0.2218,-0.2286,-0.2378,-0.2366,-0.2332,-0.2359,-0.2333,-0.2288,-0.2332,-0.2167,-0.2059,-0.1683,-0.1555,-0.1449,-0.1618,-0.156,-0.1587,-0.1619,-0.1519,-0.1502,-0.1218,-0.1221,-0.1223,-0.1225,-0.1227,0,-0.1983,-0.2047,-0.2096,-0.2189,-0.2205,-0.2291,-0.2251,-0.2159,-0.2047,-0.2019,-0.1964,-0.162,-0.1397,-0.1334,-0.106,-0.0977,-0.1044,-0.0951,-0.1057,-0.1111,-0.1161,-0.1046,-0.0617,-0.0616,-0.0614,-0.0613,0,0,-0.195,-0.1936,-0.1951,-0.1987,-0.2065,-0.1998,-0.1924,-0.1762,-0.169,-0.1513,-0.1401,-0.1456,-0.1342,-0.1018,-0.0904,-0.0741,-0.0964,-0.0705,-0.1188,-0.1376,-0.1426,-0.1483,-0.1359,0,0,0,0,0]},{"header":{"parameterUnit":"m.s-1","parameterCategory":2,"la1":30.2991,"la2":30.254,"lo1":-89.0895,"lo2":-89.0444,"dy":0.0017,"dx":0.0017,"nx":28,"ny":28,"refTime":"2023-07-29T21:00:00:Z","depth":"2","parameterNumber":3,"parameterNumberName":"V-component_of_CURRENTS"},"data":[0,0,0,0,0,0,0,0,0,0,0,0,0,0,0,0,0,0,0,0,0,0,0,0,0,0,0,0,0,0,0,0,0,0,0,0,0,0,0,0,0,0,0,0,0,0,0,0,0,0,0,0,0,0,0,0,0,0,0.0041,0.0043,0,0.024,0.0243,0.0246,0.0398,0.0398,0.0399,0.0399,0.0837,0.0848,0.086,0,0,0,0,0,0,0,0,0,0,0,0,0,-0.0081,-0.008,0.0041,0.0043,0.0044,0.0239,0.0243,0.0247,0.0398,0.0398,0.0399,0.0399,0.0834,0.0847,0.0861,0,0,0,0,0,0,0,0,0,0,0,0,0,0.004,-0.0079,0.0041,0.0134,0.0144,0.0238,0.0243,0.0248,0.0398,0.0398,0.0399,0.0399,0.0829,0.0846,0.0862,0.0957,0,0,0.0914,0.0922,0,0,0,0,0,0,0,0,0.0033,0.0046,0.0119,0.0128,0.0139,0.0284,0.036,0.0493,0.0398,0.0314,0.0399,0.0399,0.0667,0.0697,0.0746,0.0977,0.0996,0.0916,0.0926,0.0934,0.0938,0,0,0,0,0,0,0,0.0025,0.0039,0.0132,0.012,0.0132,0.0208,0.0227,0.0386,0.0498,0.0321,0.033,0.0333,0.0676,0.0729,0.0758,0.1003,0.0916,0.0931,0.0941,0.0948,0.1366,0.1366,0,0,0,0,0,0,-0.003,0.003,0.0125,0.0136,0.0073,0.0209,0.023,0.0247,0.0492,0.0524,0.0332,0.0339,0.07,0.0738,0.0774,0.0914,0.0933,0.0949,0.0959,0.1365,0.1366,0.1367,0,0,0,0,0,0,-0.0033,-0.0023,0.0117,0.0078,0.01,0.0208,0.0227,0.025,0.0323,0.0495,0.0535,0.0382,0.0702,0.0751,0.0883,0.0931,0.0957,0.0973,0.1364,0.1365,0.1366,0.1185,0,0,0,0,0,0,-0.0037,-0.0025,-0.0023,0.0074,0.0099,0.0164,0.0226,0.0253,0.0317,0.0329,0.0551,0.0591,0.0706,0.0856,0.09,0.0955,0.0986,0.1362,0.1364,0.1366,0.119,0.118,0.1171,0,0,0,0,0,-0.0042,-0.0043,-0.0024,-0.0013,0.0096,0.0162,0.0184,0.0271,0.0318,0.0343,0.0464,0.0585,0.09,0.0869,0.0921,0.0982,0.1362,0.1364,0.1366,0.1194,0.1182,0.1171,0,0,0,0,0,0,-0.0082,-0.0026,-0.0003,0.0018,0.0074,0.0183,0.0212,0.0275,0.0393,0.0412,0.0585,0.0632,0.0788,0.0896,0.0858,0.1107,0.1159,0.1171,0.101,0.1001,0.0992,0.0909,0.1,0,0,0,0,0,-0.0101,-0.0086,-0.0022,-0.0003,0.0017,0.0118,0.016,0.0214,0.0319,0.0374,0.0527,0.0688,0.0836,0.0917,0.1076,0.1194,0.1245,0.1272,0.1263,0.1254,0.1221,0.1255,0.1243,0.1373,0.1373,0.1373,0,0,-0.0113,-0.0079,-0.007,-0.0012,0.0046,0.0073,0.015,0.0203,0.0235,0.0407,0.0525,0.0681,0.0865,0.0996,0.1077,0.1088,0.1257,0.1257,0.1247,0.1219,0.1255,0.1241,0.1229,0.1375,0.1374,0.1374,0,0,-0.0135,-0.01,-0.01,-0.0065,-0.0009,0.0049,0.0059,0.0173,0.0229,0.0333,0.0476,0.0591,0.0856,0.0946,0.1036,0.1065,0.122,0.119,0.1066,0.1098,0.1085,0.1075,0.1158,0.1156,0.1167,0.1166,0.1166,0,-0.0153,-0.0141,-0.0088,-0.0082,-0.0062,0.0031,0.0037,0.0102,0.0248,0.0281,0.0347,0.0654,0.0804,0.0921,0.094,0.104,0.1119,0.1085,0.1077,0.1068,0.106,0.1148,0.1148,0.1158,0.1159,0.1159,0.116,0,-0.0183,-0.0169,-0.0164,-0.0131,-0.0102,-0.0078,-0.0014,0.0038,0.0124,0.0194,0.0334,0.0502,0.0662,0.0761,0.0869,0.0929,0.1028,0.1067,0.1081,0.1034,0.1133,0.1136,0.1145,0.1149,0.1151,0.1153,0,0,-0.0223,-0.0193,-0.0191,-0.0189,-0.0129,-0.0106,-0.0083,-0.0035,-0.002,0.0116,0.0161,0.0369,0.0456,0.0558,0.0718,0.0753,0.0782,0.089,0.0896,0.0931,0.0918,0.0923,0.0929,0.0839,0.0838,0.0837,0.102,0,-0.0256,-0.0273,-0.0242,-0.0241,-0.0241,-0.0182,-0.017,-0.0123,-0.0048,0.0024,0.0142,0.0273,0.0382,0.0479,0.0516,0.0769,0.0781,0.0733,0.0996,0.1003,0.0975,0.0926,0.0836,0.0985,0.1024,0.1025,0.1025,0,-0.0296,-0.0301,-0.0323,-0.0309,-0.0305,-0.0291,-0.0271,-0.0239,-0.0163,-0.0106,-0.0024,0.0108,0.0233,0.0309,0.0551,0.0541,0.0685,0.0828,0.0839,0.0894,0.101,0.1039,0.0991,0.1032,0.1031,0.1031,0.1031,0,-0.0363,-0.0353,-0.0374,-0.0368,-0.0344,-0.0346,-0.0317,-0.0275,-0.0254,-0.0172,-0.0122,0.0001,0.013,0.0281,0.0533,0.058,0.0784,0.0876,0.0985,0.0992,0.0985,0.099,0.0938,0.0937,0.0937,0.0936,0.0936,0,-0.0409,-0.0424,-0.0403,-0.0418,-0.0446,-0.0397,-0.0403,-0.0381,-0.0319,-0.0292,-0.0174,-0.0123,0.0131,0.0279,0.0486,0.0737,0.0721,0.0942,0.1012,0.0929,0.0926,0.1019,0.1026,0.0943,0.0942,0.0941,0.0939,0,-0.0474,-0.046,-0.0489,-0.0481,-0.0479,-0.0491,-0.0452,-0.0461,-0.0382,-0.0334,-0.0305,-0.0167,0.0,0.0205,0.0482,0.0697,0.0913,0.097,0.0874,0.0926,0.1138,0.1134,0.1186,0.1187,0.1188,0.1189,0.1189,0,-0.0507,-0.0529,-0.055,-0.057,-0.056,-0.0555,-0.0568,-0.0509,-0.0502,-0.0371,-0.0357,-0.0214,-0.0126,0.0261,0.0564,0.0863,0.0838,0.1,0.1026,0.1086,0.1151,0.1146,0.1141,0.0991,0.099,0.0989,0.0988,0,-0.0573,-0.0581,-0.061,-0.0656,-0.0673,-0.0686,-0.0674,-0.0687,-0.0599,-0.0549,-0.0473,-0.0387,-0.005,0.0233,0.06,0.0763,0.0956,0.0998,0.1055,0.0919,0.091,0.0971,0.0971,0.0981,0.0981,0.0982,0.0982,0.0983,-0.0623,-0.0663,-0.07,-0.0743,-0.0763,-0.0797,-0.0809,-0.0794,-0.0784,-0.0652,-0.0563,-0.0322,-0.0022,0.051,0.0666,0.0862,0.095,0.1062,0.1062,0.1063,0.0984,0.0973,0.1047,0.1048,0.1049,0.1049,0.105,0,-0.0683,-0.0728,-0.0778,-0.0832,-0.0875,-0.0848,-0.087,-0.0858,-0.0852,-0.0648,-0.0519,-0.0162,0.0158,0.0403,0.0748,0.0991,0.0957,0.0946,0.0873,0.0881,0.0888,0.0797,0.0812,0.0812,0.0812,0.0811,0,0,-0.0718,-0.0788,-0.0819,-0.0912,-0.0935,-0.0962,-0.0969,-0.0939,-0.0789,-0.0627,-0.0367,-0.0001,0.032,0.0524,0.0664,0.0752,0.0767,0.0726,0.0903,0.0806,0.081,0.0944,0.0812,0,0,0,0,0]}],[{"header":{"parameterUnit":"m.s-1","parameterCategory":2,"la1":30.2991,"la2":30.254,"lo1":-89.0895,"lo2":-89.0444,"dy":0.0017,"dx":0.0017,"nx":28,"ny":28,"refTime":"2023-07-29T21:00:00:Z","depth":"4","parameterNumber":2,"parameterNumberName":"U-component_of_CURRENTS"},"data":[0,0,0,0,0,0,0,0,0,0,0,0,0,0,0,0,0,0,0,0,0,0,0,0,0,0,0,0,0,0,0,0,0,0,0,0,0,0,0,0,0,0,0,0,0,0,0,0,0,0,0,0,0,0,0,0,0,0,-0.152,-0.152,0,-0.1577,-0.1577,-0.1578,-0.1604,-0.1604,-0.1604,-0.1604,-0.1683,-0.1685,-0.1687,0,0,0,0,0,0,0,0,0,0,0,0,0,-0.1485,-0.1485,-0.152,-0.1521,-0.1521,-0.1577,-0.1577,-0.1578,-0.1604,-0.1604,-0.1604,-0.1604,-0.1682,-0.1685,-0.1687,0,0,0,0,0,0,0,0,0,0,0,0,0,-0.1516,-0.1485,-0.152,-0.1542,-0.1544,-0.1576,-0.1577,-0.1578,-0.1604,-0.1604,-0.1604,-0.1604,-0.1682,-0.1685,-0.1688,-0.1706,0,0,-0.1697,-0.1699,0,0,0,0,0,0,0,0,-0.1514,-0.1517,-0.1538,-0.154,-0.1543,-0.1584,-0.1594,-0.1622,-0.1604,-0.158,-0.1604,-0.1604,-0.1653,-0.1658,-0.1667,-0.1709,-0.1713,-0.1697,-0.1699,-0.1701,-0.1702,0,0,0,0,0,0,0,-0.1512,-0.1515,-0.1541,-0.1538,-0.1542,-0.1567,-0.157,-0.16,-0.1615,-0.1582,-0.1584,-0.1592,-0.1654,-0.1664,-0.1669,-0.1714,-0.1697,-0.17,-0.1702,-0.1703,-0.1828,-0.1829,0,0,0,0,0,0,-0.1504,-0.1512,-0.1539,-0.1543,-0.153,-0.1567,-0.1571,-0.157,-0.1614,-0.1621,-0.1592,-0.1593,-0.1658,-0.1665,-0.1672,-0.1752,-0.1701,-0.1704,-0.1705,-0.1826,-0.1828,-0.183,0,0,0,0,0,0,-0.1503,-0.1506,-0.1537,-0.1531,-0.1536,-0.1567,-0.1566,-0.1571,-0.1601,-0.1622,-0.1629,-0.1619,-0.1659,-0.1668,-0.1719,-0.1753,-0.1705,-0.1708,-0.1825,-0.1827,-0.1829,-0.1876,0,0,0,0,0,0,-0.1501,-0.1504,-0.1513,-0.153,-0.1537,-0.1568,-0.1566,-0.1572,-0.1605,-0.1607,-0.1647,-0.1653,-0.1659,-0.1715,-0.1722,-0.1757,-0.171,-0.1823,-0.1826,-0.1828,-0.1873,-0.188,-0.1886,0,0,0,0,0,-0.15,-0.1505,-0.1513,-0.1517,-0.1543,-0.1569,-0.1576,-0.1597,-0.1606,-0.1623,-0.1654,-0.1653,-0.1737,-0.1719,-0.1727,-0.1763,-0.1822,-0.1825,-0.1828,-0.187,-0.1879,-0.1886,0,0,0,0,0,0,-0.1501,-0.1509,-0.1517,-0.1527,-0.1554,-0.1574,-0.1597,-0.1611,-0.1648,-0.166,-0.1674,-0.1683,-0.1734,-0.1746,-0.1725,-0.1806,-0.1778,-0.1783,-0.1807,-0.1815,-0.1822,-0.1814,-0.1713,0,0,0,0,0,-0.1503,-0.151,-0.1527,-0.1542,-0.1554,-0.1581,-0.16,-0.1616,-0.1646,-0.1663,-0.1691,-0.1724,-0.1752,-0.1782,-0.1802,-0.1858,-0.1842,-0.1885,-0.1891,-0.1897,-0.1897,-0.1908,-0.1915,-0.184,-0.184,-0.184,0,0,-0.1515,-0.1518,-0.1526,-0.1544,-0.1567,-0.1588,-0.1593,-0.1629,-0.1659,-0.1667,-0.1725,-0.1744,-0.1768,-0.182,-0.1845,-0.184,-0.1908,-0.1901,-0.1905,-0.1902,-0.1912,-0.1919,-0.1925,-0.1843,-0.1842,-0.1842,0,0,-0.1531,-0.1539,-0.1549,-0.1565,-0.1598,-0.1614,-0.1628,-0.1664,-0.1694,-0.1745,-0.1756,-0.18,-0.185,-0.1876,-0.1893,-0.1951,-0.1931,-0.1963,-0.2005,-0.2017,-0.2023,-0.2028,-0.2004,-0.2007,-0.1979,-0.1979,-0.1979,0,-0.1545,-0.1549,-0.1561,-0.1573,-0.1593,-0.1625,-0.1649,-0.1683,-0.1736,-0.1769,-0.177,-0.185,-0.1874,-0.1935,-0.1957,-0.1966,-0.1955,-0.1974,-0.2024,-0.2029,-0.2033,-0.2008,-0.201,-0.1982,-0.1982,-0.1981,-0.1981,0,-0.1558,-0.1572,-0.1583,-0.1602,-0.163,-0.1657,-0.1697,-0.1743,-0.1781,-0.1813,-0.1884,-0.1916,-0.1963,-0.1984,-0.1991,-0.2046,-0.202,-0.2019,-0.2001,-0.2044,-0.2014,-0.2016,-0.1986,-0.1985,-0.1984,-0.1983,0,0,-0.1554,-0.1585,-0.159,-0.1603,-0.1646,-0.1667,-0.173,-0.1789,-0.1832,-0.1891,-0.1944,-0.2008,-0.2028,-0.2048,-0.207,-0.2094,-0.2115,-0.2079,-0.2078,-0.2048,-0.2116,-0.196,-0.1946,-0.2124,-0.2125,-0.2126,-0.2077,0,-0.1562,-0.1581,-0.1603,-0.164,-0.1653,-0.1705,-0.1756,-0.1819,-0.1875,-0.1934,-0.199,-0.2037,-0.2053,-0.2079,-0.211,-0.2113,-0.2123,-0.2126,-0.2085,-0.2083,-0.1935,-0.1945,-0.2129,-0.2078,-0.2079,-0.2079,-0.2079,0,-0.1552,-0.1567,-0.1602,-0.1648,-0.1663,-0.1697,-0.1781,-0.1831,-0.1924,-0.1968,-0.2036,-0.2069,-0.2131,-0.2122,-0.2156,-0.2158,-0.214,-0.2133,-0.2131,-0.1969,-0.193,-0.2031,-0.2081,-0.2081,-0.208,-0.208,-0.208,0,-0.1515,-0.1559,-0.1589,-0.1604,-0.1668,-0.171,-0.1753,-0.1845,-0.1891,-0.1986,-0.2014,-0.2097,-0.2118,-0.2141,-0.2145,-0.2152,-0.2148,-0.2152,-0.199,-0.1978,-0.2112,-0.2108,-0.2153,-0.2153,-0.2153,-0.2153,-0.2153,0,-0.1482,-0.1506,-0.1576,-0.1585,-0.163,-0.1687,-0.1748,-0.181,-0.1891,-0.1918,-0.202,-0.2033,-0.2123,-0.2137,-0.2143,-0.2059,-0.2146,-0.1982,-0.1955,-0.2132,-0.213,-0.2112,-0.2108,-0.2151,-0.2152,-0.2152,-0.2152,0,-0.1423,-0.1473,-0.1505,-0.1581,-0.1609,-0.1638,-0.172,-0.1753,-0.184,-0.1874,-0.1898,-0.1987,-0.1986,-0.2046,-0.2062,-0.2015,-0.1981,-0.1926,-0.209,-0.2076,-0.1801,-0.18,-0.173,-0.1725,-0.172,-0.1715,-0.1712,0,-0.1388,-0.1402,-0.1487,-0.1505,-0.154,-0.1594,-0.1625,-0.1719,-0.1737,-0.1814,-0.1802,-0.1843,-0.1881,-0.1779,-0.1863,-0.1846,-0.1831,-0.18,-0.1818,-0.1776,-0.1758,-0.1766,-0.1772,-0.1704,-0.1703,-0.1701,-0.17,0,-0.1317,-0.1365,-0.1391,-0.143,-0.1464,-0.1496,-0.1535,-0.1537,-0.1617,-0.1705,-0.1651,-0.1648,-0.1631,-0.1656,-0.1649,-0.1647,-0.1824,-0.1748,-0.1758,-0.1775,-0.1744,-0.1732,-0.1744,-0.1683,-0.1685,-0.1687,-0.1688,0,-0.1267,-0.1267,-0.1309,-0.1329,-0.1376,-0.1371,-0.1411,-0.14,-0.1428,-0.1503,-0.1473,-0.1519,-0.1587,-0.1547,-0.1549,-0.1529,-0.1509,-0.1474,-0.1499,-0.1519,-0.1477,-0.1408,-0.1207,0,0,0,0,0,-0.1202,-0.1188,-0.1199,-0.1209,-0.1252,-0.127,-0.1336,-0.1376,-0.1445,-0.1355,-0.1407,-0.138,-0.1354,-0.1395,-0.1331,-0.1473,-0.1536,-0.1393,-0.1515,-0.1587,-0.1607,-0.1581,0,0,0,0,0,0,-0.1155,-0.1166,-0.1158,-0.1104,-0.1088,-0.111,-0.1148,-0.1198,-0.1156,-0.1233,-0.1229,-0.1279,-0.129,-0.1356,-0.1293,-0.1305,-0.135,-0.143,-0.1426,-0.1575,-0.1594,-0.161,-0.159,0,0,0,0,0]},{"header":{"parameterUnit":"m.s-1","parameterCategory":2,"la1":30.2991,"la2":30.254,"lo1":-89.0895,"lo2":-89.0444,"dy":0.0017,"dx":0.0017,"nx":28,"ny":28,"refTime":"2023-07-29T21:00:00:Z","depth":"4","parameterNumber":3,"parameterNumberName":"V-component_of_CURRENTS"},"data":[0,0,0,0,0,0,0,0,0,0,0,0,0,0,0,0,0,0,0,0,0,0,0,0,0,0,0,0,0,0,0,0,0,0,0,0,0,0,0,0,0,0,0,0,0,0,0,0,0,0,0,0,0,0,0,0,0,0,-0.0124,-0.0124,0,-0.0089,-0.0089,-0.0089,-0.0054,-0.0053,-0.0053,-0.0052,0.0004,0.0005,0.0005,0,0,0,0,0,0,0,0,0,0,0,0,0,-0.0142,-0.0142,-0.0124,-0.0124,-0.0123,-0.0089,-0.0089,-0.0089,-0.0054,-0.0053,-0.0053,-0.0052,0.0003,0.0004,0.0006,0,0,0,0,0,0,0,0,0,0,0,0,0,-0.0125,-0.0142,-0.0124,-0.01,-0.0097,-0.0089,-0.0089,-0.0088,-0.0054,-0.0053,-0.0052,-0.0051,0.0003,0.0004,0.0006,-0.0006,0,0,0.001,0.001,0,0,0,0,0,0,0,0,-0.0126,-0.0125,-0.0104,-0.0102,-0.0099,-0.0073,-0.0074,-0.0059,-0.0055,-0.0073,-0.0052,-0.0051,-0.0019,-0.0016,-0.0015,-0.0003,-0.0001,0.001,0.0011,0.0011,0.0012,0,0,0,0,0,0,0,-0.0128,-0.0126,-0.0113,-0.0104,-0.01,-0.0084,-0.0081,-0.0071,-0.0054,-0.0071,-0.0068,-0.0061,-0.0018,-0.0017,-0.0013,-0.0,0.001,0.0011,0.0012,0.0012,0.0021,0.002,0,0,0,0,0,0,-0.013,-0.0128,-0.0114,-0.0111,-0.0108,-0.0084,-0.0081,-0.0084,-0.0054,-0.0048,-0.0062,-0.006,-0.0019,-0.0015,-0.0011,-0.0012,0.0011,0.0012,0.0013,0.0021,0.0021,0.002,0,0,0,0,0,0,-0.013,-0.0129,-0.0115,-0.0116,-0.0113,-0.0085,-0.0089,-0.0084,-0.0079,-0.0047,-0.004,-0.0061,-0.0018,-0.0013,-0.0003,-0.001,0.0013,0.0014,0.0022,0.0021,0.002,-0.0021,0,0,0,0,0,0,-0.0131,-0.013,-0.0135,-0.0117,-0.0113,-0.0114,-0.0089,-0.0084,-0.0075,-0.0072,-0.0044,-0.0038,-0.0017,-0.0006,-0.0002,-0.0008,0.0015,0.0023,0.0022,0.0021,-0.0019,-0.0023,-0.0026,0,0,0,0,0,-0.0132,-0.0141,-0.0136,-0.0134,-0.012,-0.0115,-0.0112,-0.009,-0.0076,-0.0081,-0.006,-0.0039,-0.0009,-0.0005,-0.0001,-0.0006,0.0023,0.0022,0.0021,-0.0017,-0.0022,-0.0026,0,0,0,0,0,0,-0.0148,-0.0138,-0.0132,-0.0136,-0.0128,-0.0108,-0.0108,-0.0095,-0.0083,-0.0078,-0.0047,-0.0041,-0.0036,-0.0018,-0.0014,-0.0007,0.0011,0.001,-0.0019,-0.0024,-0.0028,-0.0026,0.0016,0,0,0,0,0,-0.0156,-0.0163,-0.0148,-0.0153,-0.015,-0.0132,-0.0127,-0.0114,-0.0098,-0.0092,-0.0074,-0.0054,-0.004,-0.0029,-0.0018,-0.0015,0.0046,-0.0015,-0.0019,-0.0022,-0.0019,0.0089,0.0097,0.0016,0.0016,0.0016,0,0,-0.0164,-0.0158,-0.0162,-0.0157,-0.0149,-0.0159,-0.0127,-0.0123,-0.0129,-0.0088,-0.0093,-0.0071,-0.0044,-0.0041,-0.0036,-0.0023,0.0027,-0.0024,-0.0027,-0.0021,0.0089,0.0098,0.0105,0.0015,0.0015,0.0015,0,0,-0.0184,-0.0179,-0.0193,-0.0194,-0.0184,-0.0175,-0.0177,-0.0163,-0.0154,-0.0158,-0.0126,-0.0102,-0.0096,-0.0065,-0.0051,-0.0069,-0.0001,-0.0073,-0.0085,0.002,0.0028,0.0036,0.0108,0.0123,-0.0069,-0.0069,-0.007,0,-0.0193,-0.0211,-0.0196,-0.0211,-0.0217,-0.0188,-0.0208,-0.0198,-0.0183,-0.0173,-0.0167,-0.0125,-0.0104,-0.0073,-0.0083,-0.0076,-0.0013,-0.0069,0.0018,0.0027,0.0037,0.0109,0.0126,-0.0072,-0.0071,-0.0071,-0.0071,0,-0.0229,-0.0243,-0.0251,-0.0266,-0.0271,-0.0282,-0.0269,-0.027,-0.0257,-0.0235,-0.0209,-0.0169,-0.0137,-0.013,-0.0116,-0.0051,-0.0027,-0.0001,0.0035,0.0043,0.0117,0.0136,-0.0075,-0.0074,-0.0073,-0.0073,0,0,-0.0247,-0.0273,-0.0276,-0.0298,-0.0303,-0.0313,-0.0323,-0.0316,-0.0315,-0.0283,-0.0263,-0.0228,-0.0184,-0.0165,-0.0126,-0.0042,0.0065,0.0,0.0007,0.008,0.0287,0.0214,0.0228,0.012,0.0123,0.0126,0.0308,0,-0.028,-0.0326,-0.0327,-0.0374,-0.0398,-0.0386,-0.0404,-0.0391,-0.0366,-0.0339,-0.0264,-0.0236,-0.0201,-0.0183,-0.0089,0.0023,0.0116,0.0012,0.0262,0.0268,0.0211,0.0248,0.0136,0.0322,0.0327,0.033,0.0332,0,-0.0317,-0.0344,-0.0396,-0.0436,-0.0446,-0.0468,-0.0483,-0.049,-0.0436,-0.0414,-0.0344,-0.0282,-0.0175,-0.0142,0.0088,0.0026,0.0151,0.0248,0.0258,0.022,0.0231,0.0317,0.0367,0.0365,0.0362,0.036,0.0357,0,-0.0347,-0.0392,-0.0439,-0.0454,-0.0492,-0.0513,-0.0528,-0.0508,-0.0514,-0.0443,-0.0427,-0.0284,-0.0216,-0.0027,0.0148,0.0139,0.0409,0.0429,0.0486,0.0482,0.0513,0.0503,0.0614,0.0614,0.0614,0.0613,0.0613,0,-0.0384,-0.0421,-0.0458,-0.0488,-0.0545,-0.0553,-0.0592,-0.0587,-0.0564,-0.0557,-0.0458,-0.0406,-0.0177,-0.0012,0.0163,0.0369,0.0434,0.0493,0.0533,0.0486,0.047,0.0526,0.0513,0.062,0.0619,0.0617,0.0616,0,-0.041,-0.0434,-0.0494,-0.0544,-0.0564,-0.0604,-0.0651,-0.0669,-0.0647,-0.0629,-0.0609,-0.0466,-0.0246,-0.003,0.0276,0.0367,0.0581,0.0641,0.0553,0.0583,0.0582,0.0565,0.0737,0.0736,0.0735,0.0734,0.0734,0,-0.0428,-0.0461,-0.0538,-0.0578,-0.0603,-0.0659,-0.0698,-0.0709,-0.0714,-0.066,-0.064,-0.0457,-0.0335,0.0051,0.0264,0.0584,0.0615,0.0694,0.0655,0.0578,0.0601,0.0584,0.0568,0.0733,0.0733,0.0732,0.0732,0,-0.0464,-0.0491,-0.054,-0.0622,-0.0676,-0.0736,-0.0777,-0.0786,-0.0781,-0.0767,-0.0632,-0.0462,-0.0226,0.0058,0.0286,0.0513,0.0622,0.0687,0.0691,0.0655,0.0576,0.0595,0.058,0.073,0.073,0.073,0.073,0,-0.0488,-0.0531,-0.0596,-0.0664,-0.0736,-0.0785,-0.0804,-0.0784,-0.0785,-0.0711,-0.0657,-0.042,-0.0271,0.0022,0.0242,0.0439,0.0488,0.0516,0.0529,0.0534,0.0396,0.0259,0.0364,0,0,0,0,0,-0.0513,-0.0565,-0.0633,-0.0715,-0.0782,-0.0819,-0.0849,-0.085,-0.0833,-0.0738,-0.0696,-0.047,-0.0163,-0.0017,0.0181,0.0213,0.05,0.0439,0.0534,0.0716,0.0719,0.058,0,0,0,0,0,0,-0.0537,-0.0605,-0.0639,-0.0737,-0.0792,-0.0865,-0.0879,-0.0864,-0.0787,-0.0735,-0.0533,-0.0475,-0.013,-0.0256,0.0175,0.0228,0.0297,0.059,0.0592,0.0714,0.0717,0.0719,0.0578,0,0,0,0,0]}]]